ABS-2

Last updated on Sat May 17 2025 00:02:44 GMT+0000 (Coordinated Universal Time)

1 39508U 14006A 25136.46593780 -.00000073 00000+0 00000+0 0 9994 2 39508 0.0383 90.5856 0003843 329.1618 57.3561 1.00271770 41302
UTC large
Height (km)
Speed (km/s)
/
Latitude / Longitude
Inclination (degrees)
Orbital Period (minutes)
Azimuth
Elevation
Range (km)
Doppler Factor

Next 0 passes for location: London (51.5072 / 0.1276)

Sorry there are no passes over London.